This is the latest recevied weather packets stored in our database for station/object EUGENE. If no packets are shown the sender has not sent any weather packets the latest 10 day(s).
| Time | Temp. | Humidity | Pressure | Rain* | Wind** | Luminosity | Snow |
|---|---|---|---|---|---|---|---|
| 1777559223 | 7.78° C | 96% | 1019.6 hPa | 0 mm | - | - | - |
| 1777558323 | 6.67° C | 95% | 1019.5 hPa | 0 mm | - | - | - |
| 1777557423 | 6.11° C | 95% | 1019.5 hPa | 0 mm | - | - | - |
| 1777556522 | 5.56° C | 95% | 1019.3 hPa | 0 mm | - | - | - |
| 1777555623 | 5.56° C | 95% | 1019.3 hPa | 0 mm | - | - | - |
| 1777554723 | 5.56° C | 94% | 1019.2 hPa | 0 mm | - | - | - |
| 1777553822 | 6.11° C | 94% | 1019.3 hPa | 0 mm | - | - | - |
| 1777552922 | 5.56° C | 94% | 1019.2 hPa | 0 mm | - | - | - |
| 1777552023 | 5.56° C | 94% | 1019 hPa | 0 mm | - | - | - |
| 1777551123 | 5.56° C | 94% | 1019.1 hPa | 0 mm | - | - | - |
| 1777550222 | 5.56° C | 94% | 1019.3 hPa | 0 mm | - | - | - |
| 1777549323 | 5.56° C | 93% | 1019.4 hPa | 0 mm | - | - | - |
| 1777548423 | 6.11° C | 93% | 1019.4 hPa | 0 mm | - | - | - |
| 1777547522 | 6.11° C | 93% | 1019.5 hPa | 0 mm | - | - | - |
| 1777546623 | 6.11° C | 93% | 1019.3 hPa | 0 mm | - | - | - |
| 1777545723 | 6.11° C | 92% | 1019.3 hPa | 0 mm | - | - | - |
| 1777544822 | 6.11° C | 92% | 1019.3 hPa | 0 mm | - | - | - |
| 1777543923 | 6.11° C | 92% | 1019.3 hPa | 0 mm | - | - | - |
| 1777543022 | 6.67° C | 92% | 1019.3 hPa | 0 mm | - | - | - |
| 1777542122 | 6.67° C | 91% | 1019.4 hPa | 0 mm | - | - | - |
| 1777541222 | 6.67° C | 91% | 1019.5 hPa | 0 mm | - | - | - |
| 1777540323 | 7.22° C | 91% | 1019.5 hPa | 0 mm | - | - | - |
| 1777539422 | 7.22° C | 90% | 1019.6 hPa | 0 mm | - | - | - |
| 1777538523 | 7.22° C | 89% | 1019.7 hPa | 0 mm | - | - | - |
| 1777537623 | 7.78° C | 89% | 1019.7 hPa | 0 mm | - | - | - |
* Rain latest hour (hover to see other rain measurements)
** Current wind speed in m/s (hover to see current wind gust speed)